Location: Bron Breck
(40.6655°N, 111.8083°W)
Time: 23:26:41
(UTC+00:00)

Envisat - Pass Details

Date: 10 March 2021
Orbit: 764 x 766 km, 98.1° (Epoch: 12 April)

Event Time Altitude Azimuth Distance (km) Brightness Sun altitude
Rises 12:20:41 0° 23° (NNE) 3,239 6.7 -17.0°
Reaches altitude 10° 12:23:15 10° 34° (NE) 2,308 6.1 -16.6°
Maximum altitude 12:27:44 31° 96° (E) 1,325 5.0 -15.7°
Drops below altitude 10° 12:32:11 10° 158° (SSE) 2,293 5.6 -14.9°
Sets 12:34:43 0° 168° (SSE) 3,214 6.3 -14.4°
